Regional Weather Roundup
Issued by NWS Albany, NY

Home | Current Version | Previous Version | Graphics & Text | Print | Product List | Glossary On
Versions: 1 2 3 4 5 6 7 8 9 10 11 12 13 14 15 16 17 18 19 20 21 22 23 24 25 26 27
000
ASUS41 KALY 250010
RWRALY

NEW YORK STATE HOURLY WEATHER ROUNDUP
NATIONAL WEATHER SERVICE ALBANY NY
800 PM EDT FRI MAR 24 2017

NOTE: "FAIR" INDICATES FEW OR NO CLOUDS BELOW 12,000 FEET WITH NO
SIGNIFICANT WEATHER AND/OR NO OBSTRUCTIONS TO VISIBILITY.

NYZ032-033-038>043-046>054-057>066-NYZ062>081-082-084-250100-
EAST


CITY           SKY/WX    TMP DP  RH WIND       PRES   REMARKS
ALBANY         CLOUDY    41  32  70 S9        30.04S
GLENS FALLS    CLOUDY    33  30  88 CALM      30.04S FOG
POUGHKEEPSIE   PTCLDY    40  31  70 SE3       30.11S
NEWBURGH       MOCLDY    41  34  75 CALM      30.12R
MONTGOMERY     CLEAR     40  32  73 CALM      30.10R
WHITE PLAINS   CLEAR     44  32  62 CALM      30.11R
ISLIP          MOCLDY    44  38  79 SW13      30.14R
NEW YORK CITY  MOCLDY    53  37  54 S5        30.11S
CENTRAL PARK   CLEAR     55  34  45 CALM      30.14R
$$

NYZ005>009-017-018-044>046-055-056-250100-
CENTRAL


CITY           SKY/WX    TMP DP  RH WIND       PRES   REMARKS
FULTON         CLOUDY    41  36  82 N5        30.01R
SYRACUSE       CLOUDY    42  37  82 NE3       30.00R
ROME           CLOUDY    41  36  82 E7        30.02R
ELMIRA         CLOUDY    56  39  53 SE5       30.01R
BINGHAMTON     CLOUDY    41  34  76 S7        30.02S
MONTICELLO     CLOUDY    34  34 100 CALM      30.11R VSB 3/4
$$

NYZ026>034-041>043-087-250100-
NORTH


CITY           SKY/WX    TMP DP  RH WIND       PRES   REMARKS
WATERTOWN      CLOUDY    40  37  89 NW6       30.02R
FORT DRUM      NOT AVBL
MASSENA        LGT SNOW  33  32  96 CALM      30.06R FOG
SARANAC LAKE   MIX PCPN  34  34 100 SW6       29.96R FOG     WCI  29
PLATTSBURGH    LGT RAIN  33  31  92 N5        30.02R FOG     WCI  29
$$

NYZ001>004-010>016-019>021-085-250100-
WEST


CITY           SKY/WX    TMP DP  RH WIND       PRES   REMARKS
NIAGARA FALLS  CLOUDY    61  49  64 W6        29.97R
BUFFALO        CLOUDY    51  43  74 SW9       29.98R
DUNKIRK        CLOUDY    59  47  64 SW14      29.99R
JAMESTOWN        N/A     63  48  59 SW9       30.02R
WELLSVILLE     CLOUDY    63  46  54 W6        30.04R
ROCHESTER      CLOUDY    46  39  76 NE7       30.01R
PENN YAN       CLOUDY    51  40  65 W3        29.98R
$$

             KEY
       WCI = WIND CHILL INDEX
       VSB = VISIBILITY
       HX  = HEAT INDEX
$$




USA.gov is the U.S. government's official web portal to all federal, state and local government web resources and services.